• en Belgique
  • Liste des pays
  • À 7 jours
  • Température de l'eau
  • Carte satellitaire
  • Carte météo
  • Widgets météo
  • user-avatar
    Se connecter

    Météo par heure à Abovyan

    Ce jour, 22 Juillet, Dimanche

    Heure Température Précipitation Vent Pression Humidité
    00:00 +21°C° 0,2 mm 3 m/s 668 mmHg 73%
    01:00 +20°C° 0,2 mm 3 m/s 668 mmHg 75%
    02:00 +20°C° 0,2 mm 3 m/s 668 mmHg 77%
    03:00 +20°C° 0,2 mm 3 m/s 668 mmHg 79%
    04:00 +20°C° 0,3 mm 3 m/s 668 mmHg 78%
    05:00 +20°C° 0,3 mm 2 m/s 668 mmHg 78%
    06:00 +20°C° 0,3 mm 2 m/s 669 mmHg 77%
    07:00 +23°C° 0,1 mm 2 m/s 669 mmHg 70%
    08:00 +25°C° 0,1 mm 2 m/s 669 mmHg 63%
    09:00 +27°C° 0,1 mm 2 m/s 669 mmHg 56%
    10:00 +28°C° 0,2 mm 2 m/s 669 mmHg 52%
    11:00 +29°C° 0,2 mm 2 m/s 669 mmHg 48%
    12:00 +30°C° 0,2 mm 2 m/s 669 mmHg 43%
    13:00 +30°C° 0,4 mm 2 m/s 668 mmHg 42%
    14:00 +31°C° 0,4 mm 3 m/s 668 mmHg 41%
    15:00 +31°C° 0,4 mm 3 m/s 668 mmHg 40%
    16:00 +30°C° 0,5 mm 3 m/s 668 mmHg 43%
    17:00 +29°C° 0,5 mm 3 m/s 668 mmHg 46%
    18:00 +28°C° 0,5 mm 2 m/s 667 mmHg 49%
    19:00 +27°C° 0,4 mm 2 m/s 667 mmHg 55%
    20:00 +25°C° 0,4 mm 2 m/s 668 mmHg 61%
    21:00 +24°C° 0,4 mm 2 m/s 668 mmHg 66%
    22:00 +23°C° 0,3 mm 2 m/s 668 mmHg 70%
    23:00 +21°C° 0,3 mm 2 m/s 668 mmHg 73%

    Demain, 23 Juillet, Lundi

    Heure Température Précipitation Vent Pression Humidité
    00:00 +20°C° 0,3 mm 3 m/s 668 mmHg 76%
    01:00 +20°C° 0,1 mm 2 m/s 668 mmHg 78%
    02:00 +20°C° 0,1 mm 2 m/s 667 mmHg 80%
    03:00 +20°C° 0,1 mm 2 m/s 667 mmHg 81%
    04:00 +20°C° 0,1 mm 2 m/s 667 mmHg 81%
    05:00 +20°C° 0,1 mm 2 m/s 667 mmHg 80%
    06:00 +21°C° 0,1 mm 2 m/s 667 mmHg 79%
    07:00 +23°C° 0,2 mm 2 m/s 667 mmHg 72%
    08:00 +25°C° 0,2 mm 2 m/s 668 mmHg 64%
    09:00 +26°C° 0,2 mm 2 m/s 668 mmHg 57%
    10:00 +27°C° 0,6 mm 2 m/s 667 mmHg 53%
    11:00 +29°C° 0,6 mm 2 m/s 667 mmHg 48%
    12:00 +30°C° 0,6 mm 2 m/s 667 mmHg 44%
    13:00 +30°C° 0,5 mm 2 m/s 667 mmHg 42%
    14:00 +31°C° 0,5 mm 2 m/s 667 mmHg 41%
    15:00 +31°C° 0,5 mm 2 m/s 666 mmHg 39%
    16:00 +30°C° 0,8 mm 2 m/s 666 mmHg 42%
    17:00 +30°C° 0,8 mm 2 m/s 666 mmHg 45%
    18:00 +29°C° 0,8 mm 2 m/s 666 mmHg 48%
    19:00 +27°C° 0,6 mm 2 m/s 666 mmHg 53%
    20:00 +26°C° 0,6 mm 2 m/s 667 mmHg 58%
    21:00 +24°C° 0,6 mm 1 m/s 667 mmHg 63%
    22:00 +23°C° 0,4 mm 1 m/s 667 mmHg 66%
    23:00 +23°C° 0,4 mm 1 m/s 667 mmHg 68%

    Après-demain, 24 Juillet, Mardi

    Heure Température Précipitation Vent Pression Humidité
    00:00 +22°C° 0,4 mm 1 m/s 667 mmHg 70%
    01:00 +21°C° 0,3 mm 1 m/s 667 mmHg 72%
    02:00 +21°C° 0,3 mm 1 m/s 667 mmHg 74%
    03:00 +20°C° 0,3 mm 1 m/s 667 mmHg 76%
    04:00 +21°C° 0,1 mm 1 m/s 667 mmHg 75%
    05:00 +21°C° 0,1 mm 1 m/s 667 mmHg 73%
    06:00 +22°C° 0,1 mm 1 m/s 667 mmHg 72%
    07:00 +24°C° 0 mm 1 m/s 667 mmHg 62%
    08:00 +26°C° 0 mm 1 m/s 668 mmHg 53%
    09:00 +28°C° 0 mm 2 m/s 668 mmHg 44%
    10:00 +30°C° 0 mm 2 m/s 668 mmHg 40%
    11:00 +31°C° 0 mm 2 m/s 668 mmHg 36%
    12:00 +34°C° 0 mm 2 m/s 668 mmHg 31%
    13:00 +34°C° 0 mm 2 m/s 668 mmHg 30%
    14:00 +35°C° 0 mm 3 m/s 668 mmHg 28%
    15:00 +35°C° 0 mm 3 m/s 667 mmHg 27%
    16:00 +35°C° 0 mm 2 m/s 667 mmHg 30%
    17:00 +34°C° 0 mm 2 m/s 667 mmHg 32%
    18:00 +34°C° 0 mm 2 m/s 667 mmHg 35%
    19:00 +30°C° 0 mm 2 m/s 668 mmHg 41%
    20:00 +28°C° 0 mm 2 m/s 668 mmHg 47%
    21:00 +26°C° 0 mm 2 m/s 668 mmHg 52%
    22:00 +26°C° 0 mm 2 m/s 668 mmHg 56%
    23:00 +25°C° 0 mm 2 m/s 668 mmHg 59%

    25 Juillet, Mercredi

    Heure Température Précipitation Vent Pression Humidité
    00:00 +25°C° 0 mm 2 m/s 668 mmHg 62%
    01:00 +24°C° 0 mm 2 m/s 668 mmHg 63%
    02:00 +24°C° 0 mm 2 m/s 668 mmHg 63%
    03:00 +24°C° 0 mm 2 m/s 668 mmHg 63%
    04:00 +24°C° 0 mm 2 m/s 668 mmHg 62%
    05:00 +24°C° 0 mm 1 m/s 668 mmHg 60%
    06:00 +25°C° 0 mm 1 m/s 669 mmHg 58%
    07:00 +27°C° 0 mm 2 m/s 669 mmHg 50%
    08:00 +29°C° 0 mm 2 m/s 669 mmHg 42%
    09:00 +32°C° 0 mm 2 m/s 669 mmHg 33%
    10:00 +34°C° 0 mm 2 m/s 669 mmHg 31%
    11:00 +36°C° 0 mm 3 m/s 669 mmHg 28%
    12:00 +37°C° 0 mm 3 m/s 669 mmHg 25%
    13:00 +37°C° 0 mm 3 m/s 669 mmHg 24%
    14:00 +38°C° 0 mm 3 m/s 668 mmHg 23%
    15:00 +39°C° 0 mm 3 m/s 668 mmHg 23%
    16:00 +38°C° 0 mm 3 m/s 668 mmHg 26%
    17:00 +37°C° 0 mm 3 m/s 668 mmHg 30%
    18:00 +36°C° 0 mm 3 m/s 667 mmHg 33%
    19:00 +33°C° 0 mm 3 m/s 667 mmHg 42%
    20:00 +30°C° 0 mm 3 m/s 668 mmHg 50%
    21:00 +28°C° 0 mm 3 m/s 668 mmHg 58%
    22:00 +27°C° 0 mm 3 m/s 668 mmHg 60%
    23:00 +27°C° 0 mm 3 m/s 668 mmHg 63%

    26 Juillet, Jeudi

    Heure Température Précipitation Vent Pression Humidité
    00:00 +26°C° 0 mm 3 m/s 668 mmHg 65%
    01:00 +26°C° 0 mm 2 m/s 668 mmHg 65%
    02:00 +25°C° 0 mm 2 m/s 668 mmHg 66%
    03:00 +25°C° 0 mm 2 m/s 668 mmHg 67%
    04:00 +25°C° 0 mm 2 m/s 668 mmHg 66%
    05:00 +25°C° 0 mm 2 m/s 668 mmHg 65%
    06:00 +26°C° 0 mm 2 m/s 669 mmHg 64%
    07:00 +28°C° 0 mm 2 m/s 669 mmHg 56%
    08:00 +30°C° 0 mm 2 m/s 669 mmHg 48%
    09:00 +32°C° 0 mm 2 m/s 669 mmHg 40%
    10:00 +35°C° 0 mm 2 m/s 669 mmHg 36%
    11:00 +37°C° 0 mm 2 m/s 669 mmHg 32%
    12:00 +38°C° 0 mm 3 m/s 669 mmHg 29%
    13:00 +39°C° 0,3 mm 3 m/s 669 mmHg 28%
    14:00 +39°C° 0,3 mm 3 m/s 669 mmHg 28%
    15:00 +39°C° 0,3 mm 3 m/s 668 mmHg 28%
    16:00 +38°C° 0,5 mm 4 m/s 668 mmHg 32%
    17:00 +37°C° 0,5 mm 4 m/s 668 mmHg 36%
    18:00 +36°C° 0,5 mm 4 m/s 668 mmHg 40%
    19:00 +34°C° 0 mm 4 m/s 668 mmHg 48%
    20:00 +31°C° 0 mm 3 m/s 668 mmHg 56%
    21:00 +28°C° 0 mm 3 m/s 668 mmHg 64%
    22:00 +28°C° 0 mm 3 m/s 669 mmHg 65%
    23:00 +27°C° 0 mm 3 m/s 669 mmHg 67%

    27 Juillet, Vendredi

    Heure Température Précipitation Vent Pression Humidité
    00:00 +26°C° 0 mm 3 m/s 669 mmHg 69%
    01:00 +26°C° 0 mm 3 m/s 669 mmHg 70%
    02:00 +25°C° 0 mm 3 m/s 669 mmHg 71%
    03:00 +25°C° 0 mm 3 m/s 669 mmHg 72%
    04:00 +25°C° 0 mm 3 m/s 669 mmHg 70%
    05:00 +25°C° 0 mm 3 m/s 669 mmHg 68%
    06:00 +25°C° 0 mm 2 m/s 669 mmHg 66%
    07:00 +27°C° 0 mm 2 m/s 670 mmHg 59%
    08:00 +29°C° 0 mm 2 m/s 670 mmHg 52%
    09:00 +32°C° 0 mm 2 m/s 670 mmHg 44%
    10:00 +34°C° 0 mm 2 m/s 670 mmHg 41%
    11:00 +35°C° 0 mm 2 m/s 670 mmHg 37%
    12:00 +37°C° 0 mm 3 m/s 670 mmHg 34%
    13:00 +37°C° 0 mm 3 m/s 669 mmHg 34%
    14:00 +37°C° 0 mm 3 m/s 669 mmHg 34%
    15:00 +38°C° 0 mm 4 m/s 669 mmHg 34%
    16:00 +37°C° 0,1 mm 4 m/s 668 mmHg 37%
    17:00 +35°C° 0,1 mm 5 m/s 668 mmHg 40%
    18:00 +34°C° 0,1 mm 6 m/s 668 mmHg 44%
    19:00 +32°C° 0 mm 5 m/s 668 mmHg 46%
    20:00 +30°C° 0 mm 4 m/s 668 mmHg 49%
    21:00 +28°C° 0 mm 4 m/s 669 mmHg 51%
    22:00 +27°C° 0 mm 3 m/s 669 mmHg 52%
    23:00 +26°C° 0 mm 3 m/s 669 mmHg 52%
    Voir plus